Wenatchee, WA

3:19 PM PST on February 22, 2018 (GMT -0800)
Pangborn Memorial

Weather History for KEAT - February, 2013

Change the Weather History Date:

Tuesday, February 26, 2013

  Actual Average Record
Temperature  
Mean Temperature 33 °F 34 °F  
Max Temperature 41 °F 42 °F 60 °F (1968)
Min Temperature 24 °F 25 °F 5 °F (1993)
Degree Days  
Heating Degree Days 32 31  
Month to date heating degree days 864 878  
Since 1 July heating degree days 4807 5135  
Cooling Degree Days 0 0  
Month to date cooling degree days 0 0  
Year to date cooling degree days 0 0  
Moisture  
Dew Point 20 °F    
Average Humidity 45    
Maximum Humidity 59    
Minimum Humidity 27    
Precipitation  
Precipitation 0.00 in 0.05 in 1.24 in (2010)
Month to date precipitation 0.51 1.36  
Year to date precipitation 1.97 3.23  
Snow  
Snow 0.00 in 0.20 in - ()
Month to date snowfall 3.4 5.7  
Since 1 July snowfall 47.2 46.1  
Snow Depth T in    
Sea Level Pressure  
Sea Level Pressure 30.24 in    
Wind  
Wind Speed 5 mph (East)    
Max Wind Speed 15 mph    
Max Gust Speed 20 mph    
Visibility 10 miles    
Events      
T = Trace of Precipitation, MM = Missing Value Source: NWS Daily Summary

Daily Weather History Graph

Daily Weather History Graph

Search for Another Location

Airport or City:

Trip Planner

Search our weather history database for the weather conditions in past years. The results will help you decide how hot, cold, wet, or windy it might be!

Date:

Astronomy

Feb. 26, 2013 Rise Set
Actual Time 6:46 AM PST 5:41 PM PST
Civil Twilight 6:15 AM PST 6:12 PM PST
Nautical Twilight 5:39 AM PST 6:48 PM PST
Astronomical Twilight 5:04 AM PST 7:24 PM PST
Moon 7:13 PM PST (2/26) 6:44 AM PST (2/26)
Length of Visible Light 11h 57m
Length of Day
10h 55m
Full, 99% of the Moon is Illuminated
Feb 26
Full
Mar 4
Last Quarter
Mar 11
New
Mar 19
First Quarter
Mar 27
Full

Hourly Weather History & Observations

Time (PST) Temp. Windchill Dew Point Humidity Pressure Visibility Wind Dir Wind Speed Gust Speed Precip Events Conditions
12:55 AM 36.0 °F 32.1 °F 19.9 °F 52% 30.19 in 10.0 mi West 4.6 mph - N/A   Clear
1:55 AM 34.0 °F - 19.0 °F 54% 30.21 in 10.0 mi Calm Calm - N/A   Clear
2:55 AM 34.0 °F - 21.0 °F 59% 30.23 in 10.0 mi Calm Calm - N/A   Clear
3:55 AM 33.1 °F - 19.9 °F 59% 30.24 in 10.0 mi Calm Calm - N/A   Clear
4:55 AM 33.1 °F - 19.9 °F 59% 30.25 in 10.0 mi Calm Calm - N/A   Clear
5:55 AM 36.0 °F - 19.0 °F 50% 30.26 in 10.0 mi Calm Calm - N/A   Clear
6:55 AM 35.1 °F - 19.9 °F 54% 30.27 in 10.0 mi Calm Calm - N/A   Clear
7:55 AM 37.9 °F 32.1 °F 21.0 °F 51% 30.29 in 10.0 mi NW 8.1 mph - N/A   Scattered Clouds
8:55 AM 41.0 °F 33.1 °F 19.0 °F 41% 30.30 in 10.0 mi NW 15.0 mph - 0.00 in   Clear
9:55 AM 42.1 °F 34.5 °F 19.0 °F 40% 30.30 in 10.0 mi WNW 15.0 mph - N/A   Clear
10:55 AM 44.1 °F 37.1 °F 19.0 °F 37% 30.29 in 10.0 mi NW 15.0 mph 19.6 mph N/A   Clear
11:55 AM 45.0 °F - 18.0 °F 34% 30.27 in 10.0 mi Calm Calm - N/A   Clear
12:55 PM 46.0 °F 43.9 °F 18.0 °F 33% 30.26 in 10.0 mi Variable 4.6 mph - N/A   Clear
1:55 PM 48.0 °F - 19.0 °F 32% 30.24 in 10.0 mi East 5.8 mph - N/A   Clear
2:55 PM 48.0 °F - 19.0 °F 32% 30.22 in 10.0 mi Variable 4.6 mph - N/A   Clear
3:55 PM 48.9 °F - 19.0 °F 31% 30.21 in 10.0 mi East 6.9 mph - N/A   Clear
4:55 PM 48.0 °F - 15.1 °F 27% 30.21 in 10.0 mi SE 12.7 mph - N/A   Clear
5:55 PM 44.1 °F 39.0 °F 21.0 °F 40% 30.22 in 10.0 mi ESE 9.2 mph - N/A   Clear
6:55 PM 43.0 °F 37.7 °F 21.0 °F 42% 30.22 in 10.0 mi East 9.2 mph - N/A   Clear
7:55 PM 42.1 °F 36.1 °F 21.9 °F 45% 30.21 in 10.0 mi East 10.4 mph - N/A   Mostly Cloudy
8:55 PM 42.1 °F 37.1 °F 23.0 °F 47% 30.21 in 10.0 mi East 8.1 mph - N/A   Overcast
9:55 PM 39.0 °F 34.0 °F 24.1 °F 55% 30.21 in 10.0 mi East 6.9 mph - N/A   Overcast
10:55 PM 39.0 °F 33.4 °F 24.1 °F 55% 30.20 in 10.0 mi East 8.1 mph - N/A   Mostly Cloudy
11:55 PM 37.0 °F 31.6 °F 24.1 °F 59% 30.19 in 10.0 mi ESE 6.9 mph - N/A   Partly Cloudy